Location: Cz?stochówka
(50.8142°N, 19.0915°E)
Time: 14:49:07
(UTC+00:00)

Cosmos 2366 rocket - Pass Details

Date: 14 April 2026
Orbit: 954 x 996 km, 82.9° (Epoch: 16 May)

Event Time Altitude Azimuth Distance (km) Brightness Sun altitude
Rises 19:08:31 0° 184° (S) 3,640 6.7 -13.8°
Reaches altitude 10° 19:11:00 10° 183° (S) 2,693 6.0 -14.1°
Maximum altitude 19:17:10 81° 98° (E) 976 3.9 -14.9°
Drops below altitude 10° 19:23:20 10° 12° (NNE) 2,696 6.7 -15.6°
Sets 19:25:50 0° 11° (N) 3,645 7.4 -16.0°
